QPF
0.08 0.11 0.15 0.20 0.22 0.23 0.26 0.26 0.26 0.28 0.24 0.18 0.16 0.15 0.13 0.11 0.12 0.08 0.07 0.08 0.07 0.06 0.04 0.03 0.02 0.01 0.01 0.01 0.00 0.00 0.00 0.00 0.00 0.00 0.00 0.00 0.00 0.00
0.06 0.09 0.13 0.18 0.23 0.28 0.31 0.29 0.27 0.25 0.23 0.20 0.17 0.16 0.14 0.12 0.13 0.10 0.08 0.08 0.06 0.05 0.04 0.03 0.02 0.01 0.00 0.00 0.00 0.00 0.00 0.00 0.00 0.00 0.00 0.00 0.00 0.00
0.06 0.08 0.11 0.16 0.21 0.26 0.29 0.29 0.26 0.21 0.20 0.20 0.17 0.14 0.12 0.11 0.12 0.09 0.07 0.06 0.04 0.03 0.02 0.01 0.01 0.00 0.00 0.00 0.00 0.00 0.00 0.00 0.00 0.00 0.00 0.00 0.00 0.00
0.05 0.08 0.12 0.14 0.16 0.17 0.18 0.17 0.15 0.12 0.13 0.15 0.16 0.15 0.13 0.13 0.12 0.08 0.06 0.04 0.02 0.02 0.01 0.01 0.00 0.00 0.00 0.00 0.00 0.00 0.00 0.00 0.00 0.00 0.00 0.00 0.00 0.00
0.06 0.07 0.10 0.11 0.11 0.11 0.11 0.10 0.10 0.10 0.10 0.11 0.13 0.13 0.13 0.12 0.10 0.07 0.05 0.03 0.02 0.01 0.00 0.00 0.00 0.00 0.00 0.00 0.00 0.00 0.00 0.00 0.00 0.00 0.00 0.00 0.00 0.00
0.05 0.06 0.07 0.07 0.07 0.06 0.06 0.06 0.07 0.07 0.08 0.08 0.07 0.08 0.08 0.07 0.07 0.06 0.04 0.02 0.01 0.01 0.00 0.00 0.00 0.00 0.00 0.00 0.00 0.00 0.00 0.00 0.00 0.00 0.00 0.00 0.00 0.00
0.04 0.04 0.04 0.05 0.05 0.05 0.04 0.04 0.04 0.05 0.05 0.05 0.05 0.05 0.05 0.05 0.05 0.04 0.02 0.01 0.01 0.01 0.01 0.01 0.00 0.00 0.00 0.00 0.00 0.00 0.00 0.00 0.00 0.00 0.00 0.00 0.00 0.00
0.04 0.04 0.03 0.03 0.03 0.03 0.04 0.03 0.03 0.03 0.03 0.03 0.03 0.03 0.03 0.03 0.02 0.02 0.01 0.01 0.00 0.00 0.00 0.00 0.00 0.00 0.00 0.00 0.00 0.00 0.00 0.00 0.00 0.00 0.00 0.00 0.00 0.00
0.04 0.03 0.03 0.03 0.03 0.02 0.02 0.02 0.02 0.02 0.02 0.02 0.02 0.02 0.02 0.01 0.01 0.01 0.00 0.00 0.00 0.00 0.00 0.00 0.00 0.00 0.00 0.00 0.00 0.00 0.00 0.00 0.00 0.00 0.00 0.00 0.00 0.00
0.05 0.04 0.04 0.04 0.03 0.03 0.02 0.02 0.02 0.02 0.02 0.01 0.01 0.01 0.01 0.01 0.00 0.00 0.01 0.00 0.00 0.00 0.00 0.00 0.00 0.00 0.00 0.00 0.00 0.00 0.00 0.00 0.00 0.00 0.00 0.00 0.00 0.00
0.04 0.05 0.04 0.03 0.03 0.03 0.02 0.02 0.02 0.01 0.01 0.01 0.01 0.01 0.00 0.00 0.00 0.00 0.00 0.00 0.00 0.00 0.00 0.00 0.00 0.01 0.00 0.00 0.00 0.00 0.00 0.00 0.00 0.00 0.00 0.00 0.00 0.00
0.02 0.02 0.01 0.01 0.01 0.01 0.01 0.00 0.00 0.00 0.00 0.01 0.01 0.00 0.00 0.00 0.00 0.00 0.00 0.00 0.00 0.00 0.00 0.00 0.00 0.00 0.00 0.01 0.00 0.00 0.00 0.00 0.00 0.00 0.00 0.00 0.00 0.00
0.01 0.01 0.00 0.00 0.00 0.00 0.00 0.00 0.00 0.00 0.00 0.00 0.00 0.00 0.00 0.00 0.00 0.00 0.00 0.00 0.00 0.00 0.01 0.00 0.00 0.00 0.00 0.00 0.00 0.00 0.00 0.00 0.00 0.00 0.00 0.00 0.00 0.00
0.00 0.00 0.00 0.00 0.00 0.00 0.00 0.00 0.00 0.00 0.00 0.00 0.00 0.00 0.00 0.00 0.00 0.00 0.00 0.00 0.00 0.00 0.00 0.00 0.00 0.00 0.00 0.00 0.00 0.00 0.00 0.00 0.00 0.00 0.00 0.00 0.00 0.00
0.00 0.00 0.00 0.00 0.00 0.00 0.00 0.00 0.00 0.00 0.00 0.00 0.00 0.00 0.00 0.00 0.00 0.00 0.00 0.00 0.00 0.00 0.00 0.00 0.00 0.00 0.00 0.00 0.00 0.00 0.00 0.00 0.00 0.00 0.00 0.00 0.00 0.00
0.00 0.00 0.00 0.00 0.00 0.00 0.00 0.00 0.00 0.00 0.00 0.00 0.00 0.00 0.00 0.00 0.00 0.00 0.00 0.00 0.00 0.00 0.00 0.00 0.00 0.00 0.00 0.00 0.00 0.00 0.01 0.00 0.00 0.00 0.00 0.00 0.00 0.00
0.00 0.00 0.00 0.00 0.00 0.00 0.00 0.00 0.00 0.00 0.00 0.00 0.00 0.00 0.00 0.00 0.00 0.00 0.00 0.00 0.00 0.00 0.00 0.00 0.00 0.00 0.00 0.00 0.00 0.00 0.00 0.00 0.00 0.00 0.00 0.00 0.00 0.00
0.00 0.00 0.00 0.00 0.00 0.00 0.00 0.00 0.00 0.00 0.00 0.00 0.00 0.00 0.00 0.00 0.00 0.00 0.00 0.00 0.00 0.00 0.00 0.00 0.00 0.00 0.00 0.00 0.00 0.00 0.00 0.00 0.00 0.00 0.00 0.00 0.00 0.00
0.00 0.00 0.00 0.00 0.00 0.00 0.00 0.00 0.00 0.00 0.00 0.00 0.00 0.00 0.00 0.00 0.00 0.00 0.00 0.00 0.00 0.00 0.00 0.00 0.00 0.00 0.00 0.00 0.00 0.00 0.00 0.00 0.00 0.00 0.00 0.00 0.00 0.00
0.00 0.00 0.00 0.00 0.00 0.00 0.00 0.00 0.00 0.00 0.00 0.00 0.00 0.00 0.00 0.00 0.00 0.00 0.00 0.00 0.00 0.00 0.00 0.00 0.00 0.00 0.00 0.00 0.00 0.00 0.00 0.00 0.00 0.00 0.00 0.00 0.00 0.00
0.00 0.00 0.00 0.00 0.00 0.00 0.00 0.00 0.00 0.00 0.00 0.00 0.00 0.00 0.00 0.00 0.00 0.00 0.00 0.00 0.00 0.00 0.00 0.00 0.00 0.00 0.00 0.00 0.00 0.00 0.00 0.00 0.00 0.00 0.00 0.00 0.00 0.00
0.00 0.00 0.00 0.00 0.00 0.00 0.00 0.00 0.00 0.00 0.00 0.00 0.00 0.00 0.00 0.00 0.00 0.00 0.00 0.00 0.00 0.00 0.00 0.00 0.00 0.00 0.00 0.00 0.00 0.00 0.00 0.00 0.00 0.00 0.00 0.00 0.00 0.00
0.00 0.00 0.00 0.00 0.00 0.00 0.00 0.00 0.00 0.00 0.00 0.00 0.00 0.00 0.00 0.00 0.00 0.00 0.00 0.00 0.00 0.00 0.00 0.00 0.00 0.00 0.00 0.00 0.00 0.00 0.00 0.00 0.00 0.00 0.00 0.00 0.00 0.00
MSLP
1014.09 1014.32 1014.70 1015.23 1015.90 1016.69 1017.58 1018.54 1019.54 1020.53 1021.49 1022.38 1023.17 1023.84 1024.38 1024.80 1025.11 1025.34 1025.51 1025.65 1025.79 1025.95 1026.11 1026.29 1026.47 1026.64 1026.78 1026.88 1026.94 1026.97 1026.97 1026.94 1026.91 1026.86 1026.81 1026.74 1026.64 1026.51
1013.73 1013.93 1014.28 1014.79 1015.44 1016.23 1017.14 1018.14 1019.19 1020.26 1021.29 1022.24 1023.09 1023.81 1024.38 1024.81 1025.12 1025.32 1025.46 1025.57 1025.67 1025.79 1025.94 1026.10 1026.28 1026.46 1026.63 1026.76 1026.85 1026.91 1026.93 1026.92 1026.89 1026.84 1026.77 1026.67 1026.55 1026.39
1013.72 1013.92 1014.26 1014.74 1015.37 1016.15 1017.04 1018.03 1019.08 1020.16 1021.20 1022.18 1023.04 1023.77 1024.34 1024.77 1025.06 1025.23 1025.34 1025.41 1025.47 1025.55 1025.67 1025.81 1025.98 1026.16 1026.34 1026.49 1026.60 1026.69 1026.73 1026.75 1026.73 1026.69 1026.62 1026.53 1026.40 1026.23
1014.09 1014.31 1014.64 1015.11 1015.71 1016.43 1017.28 1018.22 1019.22 1020.25 1021.26 1022.21 1023.05 1023.76 1024.31 1024.72 1024.98 1025.14 1025.21 1025.25 1025.27 1025.32 1025.39 1025.51 1025.65 1025.81 1025.97 1026.11 1026.24 1026.33 1026.39 1026.43 1026.43 1026.41 1026.36 1026.28 1026.18 1026.03
1014.82 1015.06 1015.40 1015.84 1016.39 1017.05 1017.82 1018.67 1019.59 1020.54 1021.47 1022.35 1023.13 1023.80 1024.32 1024.70 1024.94 1025.08 1025.14 1025.15 1025.15 1025.16 1025.19 1025.26 1025.35 1025.47 1025.59 1025.71 1025.81 1025.89 1025.95 1025.99 1026.01 1026.01 1025.99 1025.94 1025.87 1025.77
1015.82 1016.09 1016.42 1016.82 1017.31 1017.90 1018.57 1019.31 1020.12 1020.95 1021.78 1022.57 1023.28 1023.89 1024.37 1024.73 1024.97 1025.10 1025.15 1025.16 1025.14 1025.12 1025.11 1025.13 1025.16 1025.21 1025.27 1025.33 1025.38 1025.43 1025.46 1025.48 1025.50 1025.51 1025.51 1025.50 1025.46 1025.41
1016.98 1017.25 1017.56 1017.93 1018.36 1018.85 1019.42 1020.04 1020.72 1021.43 1022.14 1022.83 1023.46 1024.02 1024.47 1024.81 1025.05 1025.20 1025.26 1025.28 1025.25 1025.21 1025.17 1025.13 1025.10 1025.08 1025.06 1025.04 1025.02 1025.00 1024.98 1024.96 1024.95 1024.95 1024.96 1024.97 1024.97 1024.96
1018.15 1018.42 1018.71 1019.03 1019.39 1019.81 1020.27 1020.78 1021.33 1021.92 1022.52 1023.11 1023.67 1024.17 1024.59 1024.93 1025.18 1025.35 1025.44 1025.47 1025.46 1025.41 1025.34 1025.26 1025.16 1025.07 1024.96 1024.86 1024.75 1024.65 1024.56 1024.48 1024.43 1024.40 1024.39 1024.39 1024.41 1024.42
1019.24 1019.49 1019.76 1020.04 1020.34 1020.68 1021.05 1021.46 1021.91 1022.38 1022.88 1023.39 1023.87 1024.32 1024.72 1025.06 1025.33 1025.52 1025.64 1025.70 1025.69 1025.65 1025.56 1025.45 1025.31 1025.14 1024.97 1024.78 1024.60 1024.41 1024.25 1024.10 1023.99 1023.91 1023.86 1023.83 1023.83 1023.84
1020.18 1020.41 1020.65 1020.90 1021.16 1021.44 1021.74 1022.07 1022.43 1022.82 1023.23 1023.65 1024.07 1024.48 1024.85 1025.18 1025.45 1025.66 1025.81 1025.89 1025.90 1025.86 1025.78 1025.64 1025.47 1025.27 1025.04 1024.80 1024.55 1024.30 1024.07 1023.86 1023.68 1023.53 1023.42 1023.35 1023.30 1023.27
1020.96 1021.19 1021.42 1021.65 1021.88 1022.12 1022.37 1022.64 1022.92 1023.24 1023.57 1023.92 1024.28 1024.64 1024.98 1025.29 1025.55 1025.76 1025.91 1026.00 1026.03 1026.00 1025.91 1025.78 1025.60 1025.38 1025.14 1024.86 1024.58 1024.29 1024.01 1023.75 1023.51 1023.30 1023.12 1022.98 1022.87 1022.79
1021.65 1021.87 1022.10 1022.32 1022.54 1022.76 1022.98 1023.20 1023.43 1023.68 1023.95 1024.23 1024.53 1024.82 1025.11 1025.38 1025.61 1025.80 1025.94 1026.02 1026.05 1026.02 1025.94 1025.81 1025.64 1025.44 1025.20 1024.93 1024.65 1024.35 1024.04 1023.74 1023.46 1023.19 1022.95 1022.74 1022.57 1022.42
1022.29 1022.52 1022.76 1022.99 1023.20 1023.41 1023.60 1023.79 1023.97 1024.17 1024.37 1024.59 1024.82 1025.05 1025.28 1025.49 1025.67 1025.81 1025.91 1025.96 1025.97 1025.93 1025.85 1025.74 1025.58 1025.40 1025.19 1024.96 1024.70 1024.41 1024.11 1023.80 1023.49 1023.18 1022.88 1022.61 1022.37 1022.15
1022.93 1023.18 1023.43 1023.66 1023.88 1024.08 1024.25 1024.40 1024.55 1024.69 1024.84 1025.00 1025.16 1025.32 1025.48 1025.62 1025.73 1025.81 1025.85 1025.86 1025.83 1025.77 1025.68 1025.57 1025.44 1025.29 1025.11 1024.92 1024.69 1024.44 1024.16 1023.85 1023.53 1023.19 1022.85 1022.52 1022.22 1021.94
1023.58 1023.84 1024.10 1024.34 1024.56 1024.74 1024.89 1025.02 1025.13 1025.23 1025.33 1025.43 1025.53 1025.62 1025.71 1025.78 1025.82 1025.83 1025.80 1025.75 1025.67 1025.57 1025.46 1025.35 1025.22 1025.10 1024.95 1024.80 1024.61 1024.39 1024.13 1023.83 1023.50 1023.14 1022.77 1022.40 1022.05 1021.73
1024.22 1024.48 1024.74 1024.98 1025.19 1025.35 1025.48 1025.58 1025.66 1025.72 1025.78 1025.84 1025.89 1025.93 1025.96 1025.96 1025.93 1025.88 1025.79 1025.67 1025.54 1025.39 1025.25 1025.11 1024.99 1024.86 1024.74 1024.60 1024.44 1024.24 1024.00 1023.70 1023.37 1022.99 1022.59 1022.18 1021.79 1021.42
1024.79 1025.05 1025.30 1025.51 1025.70 1025.84 1025.95 1026.02 1026.07 1026.12 1026.15 1026.18 1026.20 1026.20 1026.19 1026.15 1026.07 1025.96 1025.81 1025.64 1025.45 1025.26 1025.08 1024.91 1024.76 1024.63 1024.50 1024.36 1024.20 1024.00 1023.76 1023.46 1023.10 1022.71 1022.28 1021.83 1021.40 1021.00
1025.23 1025.47 1025.69 1025.88 1026.04 1026.16 1026.24 1026.29 1026.33 1026.36 1026.38 1026.40 1026.41 1026.41 1026.38 1026.31 1026.20 1026.06 1025.87 1025.66 1025.43 1025.19 1024.97 1024.77 1024.59 1024.42 1024.27 1024.11 1023.93 1023.71 1023.45 1023.12 1022.74 1022.31 1021.85 1021.37 1020.90 1020.46
1025.53 1025.73 1025.92 1026.07 1026.20 1026.29 1026.35 1026.40 1026.43 1026.46 1026.49 1026.51 1026.53 1026.52 1026.49 1026.42 1026.31 1026.15 1025.94 1025.71 1025.45 1025.19 1024.93 1024.69 1024.48 1024.28 1024.08 1023.89 1023.67 1023.42 1023.12 1022.75 1022.34 1021.87 1021.37 1020.85 1020.34 1019.86
1025.67 1025.83 1025.98 1026.10 1026.20 1026.27 1026.32 1026.36 1026.40 1026.43 1026.47 1026.51 1026.54 1026.56 1026.54 1026.47 1026.37 1026.21 1026.00 1025.76 1025.49 1025.22 1024.94 1024.68 1024.43 1024.19 1023.96 1023.73 1023.46 1023.16 1022.82 1022.41 1021.95 1021.44 1020.90 1020.34 1019.79 1019.26
1025.69 1025.82 1025.93 1026.02 1026.10 1026.16 1026.20 1026.24 1026.29 1026.33 1026.39 1026.44 1026.49 1026.51 1026.51 1026.46 1026.37 1026.22 1026.03 1025.80 1025.54 1025.26 1024.98 1024.70 1024.43 1024.17 1023.90 1023.62 1023.32 1022.97 1022.58 1022.13 1021.63 1021.09 1020.50 1019.91 1019.32 1018.75
1025.64 1025.73 1025.82 1025.90 1025.96 1026.01 1026.05 1026.10 1026.15 1026.21 1026.27 1026.34 1026.39 1026.42 1026.43 1026.39 1026.31 1026.18 1026.01 1025.79 1025.55 1025.28 1025.01 1024.73 1024.45 1024.17 1023.88 1023.57 1023.22 1022.84 1022.41 1021.92 1021.38 1020.81 1020.20 1019.57 1018.95 1018.34
1025.55 1025.63 1025.70 1025.77 1025.82 1025.87 1025.92 1025.97 1026.02 1026.08 1026.15 1026.21 1026.27 1026.30 1026.31 1026.28 1026.20 1026.09 1025.93 1025.74 1025.51 1025.27 1025.01 1024.73 1024.45 1024.16 1023.85 1023.51 1023.13 1022.71 1022.25 1021.73 1021.17 1020.57 1019.93 1019.29 1018.64 1018.01
Thickness
5652 5653 5653 5654 5653 5652 5650 5648 5641 5631 5623 5619 5617 5615 5615 5612 5610 5607 5605 5603 5600 5597 5593 5589 5586 5582 5579 5575 5572 5568 5564 5560 5557 5552 5549 5545 5542 5538
5643 5645 5645 5645 5645 5644 5642 5641 5639 5634 5622 5615 5611 5608 5605 5602 5599 5597 5595 5592 5589 5586 5583 5579 5576 5573 5569 5565 5562 5559 5555 5551 5547 5543 5539 5536 5532 5529
5634 5635 5635 5636 5635 5635 5634 5632 5629 5626 5618 5608 5603 5598 5594 5592 5589 5586 5584 5582 5579 5576 5573 5570 5566 5563 5560 5557 5553 5549 5546 5542 5538 5535 5531 5528 5524 5521
5624 5625 5625 5625 5626 5625 5624 5622 5619 5617 5612 5602 5593 5588 5585 5583 5580 5578 5574 5572 5569 5567 5564 5561 5558 5555 5552 5548 5545 5541 5538 5534 5531 5527 5524 5520 5517 5514
5615 5615 5615 5616 5616 5615 5613 5611 5609 5605 5601 5595 5586 5581 5577 5574 5572 5569 5566 5563 5561 5559 5556 5554 5551 5548 5544 5541 5538 5535 5531 5528 5525 5521 5518 5515 5512 5509
5605 5606 5606 5606 5605 5604 5603 5601 5598 5594 5589 5584 5578 5573 5570 5567 5564 5560 5556 5555 5553 5552 5549 5547 5544 5541 5538 5535 5532 5529 5526 5523 5520 5516 5513 5510 5507 5505
5595 5596 5596 5597 5596 5596 5594 5591 5589 5585 5581 5576 5570 5566 5562 5558 5555 5552 5549 5547 5545 5544 5542 5540 5538 5536 5533 5531 5528 5526 5523 5519 5516 5513 5510 5507 5504 5501
5584 5585 5586 5586 5586 5586 5584 5583 5581 5578 5572 5568 5563 5559 5555 5552 5549 5547 5542 5539 5537 5538 5536 5534 5533 5531 5530 5528 5526 5523 5520 5517 5514 5510 5507 5505 5502 5499
5573 5575 5576 5576 5576 5575 5574 5573 5571 5569 5568 5563 5558 5554 5551 5548 5545 5541 5537 5535 5533 5533 5530 5528 5527 5525 5526 5525 5523 5521 5518 5515 5512 5509 5506 5503 5500 5498
5563 5564 5565 5565 5566 5566 5565 5563 5560 5559 5558 5556 5553 5550 5547 5545 5542 5538 5535 5531 5529 5528 5526 5522 5522 5521 5523 5522 5521 5518 5516 5513 5510 5508 5505 5502 5500 5497
5553 5554 5555 5555 5556 5558 5557 5553 5551 5548 5548 5548 5546 5544 5542 5540 5537 5534 5529 5525 5522 5522 5522 5519 5517 5516 5517 5518 5518 5516 5514 5512 5510 5508 5505 5503 5501 5497
5543 5545 5546 5547 5548 5549 5548 5546 5542 5540 5541 5539 5538 5537 5536 5534 5532 5530 5526 5521 5517 5516 5518 5516 5513 5512 5511 5513 5515 5515 5513 5512 5510 5508 5506 5504 5502 5498
5535 5535 5537 5539 5540 5540 5540 5539 5537 5536 5535 5533 5532 5531 5530 5529 5528 5526 5525 5521 5517 5515 5516 5514 5511 5508 5506 5506 5510 5512 5511 5510 5509 5508 5507 5506 5503 5500
5529 5529 5530 5532 5533 5534 5534 5533 5533 5532 5530 5528 5526 5524 5524 5524 5524 5523 5522 5521 5519 5517 5517 5515 5511 5508 5505 5503 5504 5508 5510 5510 5509 5508 5507 5506 5504 5502
5524 5526 5527 5528 5528 5528 5529 5529 5529 5527 5525 5523 5521 5520 5520 5521 5521 5521 5520 5519 5519 5518 5517 5516 5513 5511 5507 5504 5504 5505 5505 5508 5509 5507 5506 5505 5504 5503
5521 5523 5524 5524 5525 5525 5525 5525 5525 5524 5522 5520 5518 5518 5519 5519 5518 5518 5517 5516 5515 5516 5518 5517 5515 5513 5509 5507 5505 5504 5504 5504 5507 5507 5505 5505 5505 5504
5520 5520 5520 5520 5520 5520 5520 5521 5521 5521 5519 5518 5518 5517 5517 5517 5517 5516 5515 5513 5512 5511 5513 5516 5516 5514 5513 5510 5507 5506 5505 5505 5507 5506 5504 5503 5505 5506
5518 5516 5516 5517 5517 5518 5518 5518 5519 5519 5519 5519 5518 5517 5516 5516 5515 5515 5514 5513 5511 5511 5511 5512 5512 5512 5511 5512 5511 5508 5507 5506 5507 5507 5504 5501 5503 5507
5517 5516 5516 5517 5518 5518 5518 5518 5519 5519 5519 5519 5518 5517 5517 5516 5516 5515 5514 5513 5512 5511 5512 5511 5510 5508 5505 5504 5510 5512 5508 5508 5507 5506 5505 5503 5503 5507
5518 5518 5519 5520 5520 5521 5521 5520 5520 5521 5520 5520 5519 5518 5518 5517 5516 5515 5514 5513 5512 5511 5511 5512 5512 5509 5506 5505 5507 5511 5513 5509 5507 5506 5507 5507 5506 5508
5521 5522 5524 5524 5524 5524 5524 5523 5523 5522 5522 5521 5520 5520 5519 5518 5517 5516 5515 5515 5513 5512 5511 5512 5515 5515 5512 5509 5506 5509 5513 5514 5511 5508 5507 5504 5503 5503
5525 5527 5528 5528 5528 5527 5527 5526 5526 5525 5524 5523 5522 5522 5521 5520 5518 5518 5516 5515 5514 5513 5514 5515 5516 5515 5512 5510 5508 5508 5510 5513 5514 5513 5510 5507 5502 5501
5530 5531 5532 5532 5532 5531 5531 5530 5530 5528 5527 5526 5525 5524 5523 5522 5521 5520 5519 5518 5517 5516 5515 5515 5515 5514 5512 5510 5508 5508 5509 5510 5510 5510 5511 5512 5509 5507